Find AprizeSat-10

NORAD ID: 40019 Int'l Des: 2014-033 Owner: SPQ Country: US operational
LEOCIRCULARRETROGRADESSO

Current View

Loading 3D Globe...

About AprizeSat-10

Description loading...

Upcoming Passes

Passes for default location (London). Set your location on the main map for personalized predictions.

Altitude History

Loading altitude history...

Two-Line Element Set

1 40019U 14033K 26150.16740303 .00000532 00000-0 91377-4 0 9994
2 40019 97.9625 277.5312 0078116 332.2294 27.4752 14.70865514639601
Epoch: May 30, 2026 • Age: 6 hours

Current Status

Altitude 717.5 km
Velocity 7.47 km/s
Sub-Earth Point 34.13°N, 71.6°E
Launch Date Jun 19, 2014
Age 11.9 years
Type other

Technical Details

Classification Payload
Mass 14.00 kg
Dry Mass 14.00 kg
Total Mass 14.00 kg
Length 0.20 m
Diameter 0.20 m
Span 0.20 m
Shape Box + Ant
Manufacturer SPQ
Bus Type Aprize
Phase Status Unknown Active Status
Owner/State SPQ/US

Most Searched